Location: Fosso Corella
(43.9167°N, 11.5667°E)
Time: 02:53:44
(UTC+00:00)

Cosmos 1933 - Pass Details

Date: 07 June 2020
Orbit: 546 x 564 km, 82.5° (Epoch: 06 July)

Event Time Altitude Azimuth Distance (km) Brightness Sun altitude
Rises 02:25:38 0° 354° (N) 2,742 7.5 -10.0°
Reaches altitude 10° 02:27:51 10° 357° (N) 1,840 6.6 -9.7°
Maximum altitude 02:31:52 66° 80° (E) 605 3.7 -9.2°
Drops below altitude 10° 02:35:50 10° 163° (SSE) 1,815 5.7 -8.7°
Sets 02:38:00 0° 166° (SSE) 2,702 6.6 -8.4°
